Flag for Vietnam Weather past 2 weeks in Hanoi, Vietnam

Now
82 °F

Passing clouds.


Feels Like: 91 °F
Forecast: 77 / 92 °F
Wind: No wind

Location: Ha Noi Airport

Current Time: Jul 29, 2014 at 7:59:34 PM

Latest Report: Jul 29, 2014 at 7:30 PM


Visibility: N/A

Pressure: 29.65 "Hg

Humidity: 84%

Dew point: 77 °F

Location of HanoiLocation

Historic Weather in Hanoi — Graph

°F

Hanoi temperature yesterday

Maximum temperature yesterday: 90 °F (at 1:30 PM)
Minimum temperature yesterday: 77 °F (at 3:30 AM)
Average temperature yesterday: 82 °F

Past Weeks' High & Low Weather Summary

 TemperatureHumidityPressure
High97 °F (Jul 24, 2:00 PM)100% (Jul 17, 10:00 AM)29.80 "Hg (Jul 17, 10:00 AM)
Low73 °F (Jul 27, 5:00 AM)50% (Jul 23, 4:30 PM)29.42 "Hg (Jul 19, 2:30 AM)
Average84 °F82%29.64 "Hg
* Reported Jul 14 6:00 PM — Jul 29 6:30 PM, Hanoi, Weather by CustomWeather, © 2014

Note: Actual official high and low records may vary slightly from our data, if they occured in-between our weather recording intervals... More about our weather records

Advertising

Hanoi weather history for previous 24 hours

 ConditionsComfort  
Time TempWeatherWind HumidityBarometerVisibility
6:30 PM
Jul 29
82 °FBroken clouds.5 mphN/AN/AN/A
6:00 PM82 °FPartly sunny.6 mph84%29.62 "HgN/A
5:30 PM82 °FThunderstorms. Broken clouds.9 mph89%29.62 "Hg3 mi
5:00 PM88 °FThunderstorms. Broken clouds.12 mph75%29.62 "HgN/A
4:30 PM90 °FThundershowers. Broken clouds.10 mph63%29.59 "HgN/A
4:00 PM90 °FScattered clouds.9 mph67%29.59 "HgN/A
3:30 PM91 °FScattered clouds.6 mph63%29.59 "HgN/A
3:00 PM93 °FScattered clouds.6 mph63%29.59 "HgN/A
2:30 PM93 °FScattered clouds.5 mph56%29.62 "HgN/A
2:00 PM91 °FScattered clouds.6 mph63%29.62 "HgN/A
1:30 PM91 °FScattered clouds.6 mph63%29.62 "HgN/A
1:00 PM90 °FScattered clouds.6 mph63%29.65 "HgN/A
12:30 PM90 °FScattered clouds.7 mph67%29.65 "HgN/A
12:00 PM91 °FScattered clouds.7 mph63%29.68 "HgN/A
11:30 AM90 °FScattered clouds.7 mph67%29.68 "HgN/A
11:00 AM90 °FScattered clouds.7 mph67%29.71 "HgN/A
10:30 AM88 °FScattered clouds.7 mph70%29.71 "HgN/A
10:00 AM86 °FScattered clouds.7 mph75%29.71 "HgN/A
9:30 AM86 °FScattered clouds.8 mph75%29.71 "HgN/A
9:00 AM84 °FPartly sunny.7 mph79%29.71 "HgN/A
8:30 AM84 °FBroken clouds.5 mph79%29.71 "HgN/A
8:00 AM82 °FPartly sunny.5 mph84%29.68 "HgN/A
7:30 AM82 °FPartly sunny.3 mph84%29.68 "HgN/A
7:00 AM82 °FPartly sunny.3 mph84%29.68 "HgN/A
6:30 AM79 °FPartly sunny.3 mph94%29.68 "Hg4 mi
6:00 AM79 °FPartly sunny.3 mph94%29.65 "Hg3 mi
5:30 AM79 °FPartly sunny.2 mph94%29.65 "Hg4 mi
5:00 AM79 °FPassing clouds.5 mph94%29.65 "Hg4 mi
4:30 AM79 °FPassing clouds.3 mph94%29.65 "Hg4 mi
4:00 AM79 °FPartly cloudy.No wind94%29.65 "Hg4 mi
3:30 AM79 °FPartly cloudy.3 mph94%29.65 "Hg4 mi
3:00 AM79 °FPartly cloudy.3 mph94%29.65 "Hg5 mi
2:30 AM79 °FPartly cloudy.5 mph94%29.65 "Hg6 mi
2:00 AM81 °FPassing clouds.6 mph89%29.65 "Hg4 mi
1:30 AM81 °FPassing clouds.5 mph94%29.65 "Hg3 mi
1:00 AM81 °FFog.5 mph94%N/A2 mi
12:30 AM82 °FPassing clouds.2 mph89%29.65 "Hg4 mi
12:00 AM81 °FPassing clouds.2 mph94%29.68 "Hg4 mi
11:30 PM
Jul 28
81 °FPassing clouds.5 mph94%29.68 "Hg4 mi
11:00 PM81 °FFog.3 mph94%29.68 "Hg2 mi
10:30 PM82 °FPassing clouds.3 mph89%29.68 "Hg4 mi
10:00 PM82 °FPassing clouds.2 mph84%29.68 "HgN/A
9:30 PM82 °FPassing clouds.5 mph84%29.68 "HgN/A
9:00 PM82 °FPassing clouds.3 mph84%29.65 "HgN/A
8:30 PM82 °FPassing clouds.3 mph84%29.65 "HgN/A
8:00 PM82 °FPassing clouds.3 mph84%29.65 "Hg6 mi
7:30 PM82 °FPassing clouds.6 mph84%29.65 "Hg6 mi
7:00 PM82 °FPassing clouds.6 mph84%29.62 "Hg6 mi
Weather by CustomWeather, © 2014

See weather overviewHow to use our weather pages